Regional Weather Roundup
Issued by NWS

Home | Current Version | Previous Version | Graphics & Text | Print | Product List | Glossary On
Versions: 1 2 3 4 5 6 7 8 9 10 11 12 13 14 15 16 17 18 19 20 21 22 23 24 25 26 27 28 29 30 31 32 33 34 35 36 37 38 39 40 41 42 43 44 45 46 47 48 49 50
000
ASUS45 KBOI 260910
RWRID

IDAHO REGIONAL WEATHER ROUNDUP
NATIONAL WEATHER SERVICE BOISE ID
200 AM MST SUN FEB 26 2017

NOTE: "FAIR" INDICATES FEW OR NO CLOUDS BELOW 12000 FEET
WITH NO SIGNIFICANT WEATHER AND/OR OBSTRUCTIONS TO VISIBILITY

IDZ012-014-261000-
SOUTHWEST IDAHO


CITY           SKY/WX    TMP DP  RH WIND       PRES   REMARKS
BOISE          MOCLDY    30  18  60 SE8       29.93F WCI  22
CALDWELL       MOCLDY    29  22  75 E9        29.95F WCI  20
MOUNTAIN HOME  MOCLDY    25  25 100 E10       29.95F WCI  15
$$

IDZ016-017-261000-
SOUTHCENTRAL IDAHO


CITY           SKY/WX    TMP DP  RH WIND       PRES   REMARKS
BURLEY         CLEAR     23  11  60 SW13      29.93S WCI  11
JEROME           N/A    N/A N/A N/A MISG      29.94F
TWIN FALLS     CLEAR     20   7  57 S15       29.93F WCI   6
$$

IDZ019>023-261000-
SOUTHEAST IDAHO


CITY           SKY/WX    TMP DP  RH WIND       PRES   REMARKS
IDAHO FALLS    CLEAR      9   6  88 SW7       29.90S WCI  -2
POCATELLO      CLOUDY    19   8  62 S12       29.92F WCI   7
REXBURG        CLOUDY    12   7  80 SW7       29.89S WCI   1
$$

IDZ006-010-011-018-031-032-261000-
CENTRAL IDAHO MOUNTAINS


CITY           SKY/WX    TMP DP  RH WIND       PRES   REMARKS
MCCALL         CLOUDY    19  13  77 NW3       29.80F
HAILEY         MOCLDY     9   3  78 NW8       29.91R WCI  -4
STANLEY          N/A      9   3  77 VRB3      29.81F
SALMON         CLOUDY    27   9  46 SW13      29.84F WCI  16
CHALLIS        CLOUDY    17  11  77 CALM      29.83F
$$

IDZ002-004-006-007-026-261000-
NORTHERN IDAHO


CITY           SKY/WX    TMP DP  RH WIND       PRES   REMARKS
LEWISTON       CLOUDY    34  26  72 E7        29.86F WCI  28
LOWELL           N/A     31  29  92 CALM      29.92F
COEUR D`ALENE  LGT SNOW  28  28 100 S9        29.79F FOG     WCI  20
MULLAN PASS    LGT SNOW  15  14  95 VRB5      29.62F VSB 1   WCI   8
$$



USA.gov is the U.S. government's official web portal to all federal, state and local government web resources and services.